RH
41 39 43 65 99 100 100 100 100 100 100 100 100 100 100 89 88 90 70 63 78 90 89 98 100 90 85 72 100 100 80 81
58 63 44 45 70 99 100 100 100 100 100 100 100 100 100 96 81 77 67 82 94 98 97 100 91 71 85 72 67 61 72 100
44 50 67 58 56 75 99 100 100 100 100 100 100 100 98 92 91 78 75 97 97 99 100 76 69 80 100 100 100 100 100 100
37 49 66 58 67 69 100 100 100 100 100 100 100 100 94 94 83 100 100 100 100 96 81 80 77 94 87 84 90 88 99 83
45 40 52 62 64 93 100 96 100 100 100 100 100 100 100 100 100 100 93 90 87 77 90 88 100 81 96 100 98 89 96 97
46 39 43 46 62 68 100 100 100 100 100 100 100 100 100 100 95 91 87 79 71 83 87 100 97 82 97 99 84 76 73 59
27 46 43 45 62 73 85 89 100 100 100 100 100 100 97 97 87 80 74 70 68 76 89 82 79 81 81 76 63 61 56 50
26 29 46 43 48 91 92 100 96 80 80 79 78 80 86 82 80 87 76 85 85 78 67 73 79 77 63 48 51 48 49 38
30 24 30 48 44 56 94 100 100 80 65 73 66 64 71 70 87 76 58 49 51 97 100 75 72 87 97 94 66 98 90 52
30 28 25 26 46 45 65 96 100 100 100 100 100 86 78 89 70 58 57 75 100 72 55 63 45 33 87 69 73 99 93 99
32 28 27 24 24 38 48 54 68 83 87 76 88 80 68 56 60 64 78 84 85 75 45 82 99 100 100 99 100 78 96 100
36 34 26 23 22 24 29 48 46 55 63 74 77 78 85 72 58 56 68 96 98 71 100 100 100 100 100 100 100 100 98 100
44 46 29 27 23 19 20 30 37 48 51 50 58 60 68 77 67 61 85 99 93 100 99 100 100 100 100 100 100 98 100 95
52 52 46 29 28 23 21 26 25 36 49 56 68 70 69 67 64 66 100 84 86 97 100 100 100 100 100 100 100 98 72 93
54 48 47 32 30 31 29 26 28 32 41 48 57 72 88 80 78 89 78 83 100 100 100 100 100 100 100 95 64 85 100 100
56 52 51 55 52 33 32 30 28 34 41 44 44 56 68 91 85 77 85 72 73 99 92 100 100 100 100 97 100 100 100 100
62 54 49 80 58 52 28 30 34 30 32 40 46 46 59 85 100 86 99 100 100 86 73 78 98 100 100 100 100 100 100 97
68 61 56 81 97 82 44 29 30 35 35 31 35 52 69 76 89 99 100 100 100 100 100 100 100 100 100 95 81 59 46 42
82 65 60 64 94 96 73 39 40 34 41 40 38 59 80 97 100 100 100 100 95 83 66 52 48 44 46 46 48 48 50 52
Wind_Speed
21 44 47 48 69 74 69 69 71 64 66 64 64 64 65 61 55 55 52 56 52 55 58 59 59 58 57 56 56 55 54 51
21 28 45 48 59 72 72 69 71 73 66 66 67 66 63 69 67 54 59 58 60 62 65 64 64 64 49 45 45 46 45 46
19 25 34 38 47 58 63 62 67 74 69 70 69 69 69 66 72 66 61 63 67 67 68 70 64 51 50 49 42 47 52 55
18 20 33 35 35 46 50 58 65 68 65 69 71 73 65 62 64 59 59 62 63 60 60 48 46 48 50 53 57 62 63 63
21 19 26 33 34 33 41 57 55 57 63 66 64 61 63 64 59 59 64 62 58 61 48 49 48 49 52 53 55 58 62 60
21 22 23 29 30 32 34 40 47 52 51 52 58 66 61 65 68 60 52 57 53 46 47 52 54 57 57 59 59 59 60 61
18 20 24 27 32 31 33 37 38 39 47 49 52 54 54 55 59 59 56 48 50 49 53 53 54 55 57 61 57 55 57 59
21 17 20 25 30 32 31 29 34 37 41 43 41 48 52 53 56 47 51 50 51 56 55 52 50 48 52 50 47 50 53 46
25 22 18 21 27 35 34 33 33 39 43 40 40 40 40 44 45 45 48 46 51 37 36 39 41 40 40 46 50 49 59 64
29 28 22 20 25 28 40 39 37 37 38 38 39 41 40 41 39 46 52 47 35 34 35 36 38 38 40 48 53 54 62 64
26 30 26 21 22 26 35 44 47 44 44 45 42 36 40 41 40 40 40 38 35 36 38 37 41 32 46 52 58 63 63 66
30 30 31 27 23 23 28 36 41 45 51 46 44 42 40 41 40 35 36 36 38 33 37 39 39 46 55 59 60 65 65 72
28 30 32 29 27 24 23 29 32 37 40 47 52 53 53 52 50 45 43 43 37 42 44 45 54 50 61 69 71 74 75 80
31 29 33 30 26 23 22 24 32 29 36 39 45 49 49 51 48 43 48 48 43 45 49 50 60 66 66 71 71 77 85 85
31 30 30 33 29 28 24 25 26 29 31 32 37 44 47 50 48 45 50 48 48 52 59 58 59 69 78 85 80 85 90 91
40 35 29 33 31 29 25 23 23 29 32 32 32 39 42 46 47 54 56 52 53 57 60 64 66 72 76 84 90 93 96 100
36 36 28 33 31 31 30 25 20 23 30 32 31 35 40 45 52 54 54 56 60 65 65 70 74 78 83 88 93 99 101 101
29 31 32 31 33 32 35 36 28 25 25 25 29 34 41 47 49 54 61 63 64 65 69 72 75 79 84 89 91 91 91 79
39 27 32 34 34 35 34 34 31 31 31 30 31 34 39 41 43 46 50 54 56 60 60 54 49 53 54 52 52 51 52 55
Wind_Direction
246 235 232 230 216 216 216 217 216 224 226 232 238 242 242 244 252 258 265 267 277 280 284 291 293 293 290 293 283 283 287 288
267 232 230 229 224 222 226 218 222 230 233 237 240 243 251 250 250 260 265 274 278 285 286 293 291 297 288 283 278 284 296 292
249 229 229 229 223 226 226 226 230 231 234 238 242 246 248 253 255 258 272 277 282 284 288 290 293 292 291 291 281 277 282 279
261 235 229 229 233 228 229 232 232 229 235 240 245 248 249 254 258 267 271 276 283 287 290 285 285 278 277 277 275 275 282 286
274 247 238 234 235 230 230 232 232 233 235 238 244 247 253 256 260 270 272 279 285 287 283 284 277 282 282 283 282 279 279 285
284 266 241 236 242 243 227 230 235 235 237 245 247 249 256 258 258 270 275 277 283 282 283 278 282 283 285 284 284 285 286 287
296 286 265 244 236 239 241 238 233 235 239 246 251 255 260 263 263 267 274 273 276 282 283 286 288 287 285 286 287 285 283 285
323 296 275 260 245 232 235 239 240 242 243 246 249 253 256 259 262 264 271 274 279 280 286 289 289 286 281 280 293 292 287 286
334 321 287 272 258 239 230 233 239 247 247 248 250 252 254 256 257 262 271 274 277 283 285 291 290 294 291 295 301 302 293 302
336 329 311 288 265 257 241 236 237 240 241 245 247 251 258 260 261 263 266 270 270 284 286 287 295 297 279 285 294 287 296 300
334 330 318 300 286 261 251 247 247 248 245 247 248 251 256 260 260 268 263 264 273 275 291 295 293 275 283 285 287 288 289 293
334 330 327 312 293 280 259 255 251 251 252 255 254 252 253 255 260 260 258 263 267 278 286 279 281 276 279 277 278 282 287 289
319 323 322 320 306 291 275 256 259 258 258 253 253 254 254 257 258 255 263 263 261 269 268 272 264 270 264 265 271 275 286 289
313 316 315 321 317 304 292 279 259 256 263 260 254 256 255 257 256 251 261 267 264 264 265 270 258 263 268 266 267 272 279 282
304 307 309 314 322 318 308 297 283 267 259 258 261 254 254 251 242 247 256 259 261 269 267 265 270 271 267 268 269 275 281 282
296 299 303 308 317 321 307 294 297 285 275 267 255 258 256 255 255 254 256 260 265 270 262 258 265 272 273 271 272 275 278 282
292 297 302 300 304 309 311 317 311 298 276 267 262 258 260 261 263 263 265 266 267 271 273 271 273 272 272 272 274 279 283 285
278 290 295 293 295 303 307 309 320 315 303 286 273 266 263 262 262 262 264 267 270 270 270 271 273 274 274 277 279 281 283 288
280 283 293 292 292 293 300 303 311 312 305 295 284 270 264 263 263 262 263 265 267 269 272 273 274 277 282 289 295 299 301 303